Location: Unspecified
(22.6800°N, 112.2000°E)
Time: 15:45:50
(UTC+08:00)

S-56A Canister/Altair - Pass Details

Date: 30 July 2021
Orbit: 632 x 2500 km, 38.9° (Epoch: 24 September)

Event Time Altitude Azimuth Distance (km) Brightness Sun altitude
Rises 22:40:19 0° 302° (WNW) 5,958 12.8 -39.9°
Reaches altitude 10° 22:44:34 10° 300° (WNW) 4,770 12.1 -40.5°
Enters shadow 22:55:30 61° 265° (W) 1,976 9.4 -42.0°
Maximum altitude 22:57:15 68° 221° (SW) 1,794 - -42.2°
Drops below altitude 10° 23:05:39 10° 139° (SE) 3,259 - -43.2°
Sets 23:08:02 0° 136° (SE) 4,014 - -43.5°
